Regional Weather Roundup
Issued by NWS Cleveland, OH

Home | Current Version | Previous Version | Graphics & Text | Print | Product List | Glossary On
Versions: 1 2 3 4 5 6 7 8 9 10 11 12 13 14 15 16 17 18 19 20 21 22 23 24 25 26 27 28 29 30 31 32 33 34 35 36 37 38 39 40 41 42 43 44 45 46 47 48 49 50
000
ASUS41 KCLE 281402
RWRCLE
OHIO REGIONAL WEATHER ROUNDUP
NATIONAL WEATHER SERVICE CLEVELAND, OH
1000 AM EDT WED SEP 28 2016

NOTE: "FAIR" INDICATES FEW OR NO CLOUDS BELOW 12,000 FEET WITH NO
SIGNIFICANT WEATHER AND/OR OBSTRUCTIONS TO VISIBILITY.

OHZ001>008-015>018-024>027-034-035-043-044-281500-
   NORTHWEST OHIO

CITY           SKY/WX    TMP DP  RH WIND       PRES   REMARKS
DEFIANCE       CLOUDY    58  49  72 E7        29.83R
FINDLAY        PTSUNNY   56  51  84 E10       29.84S
TOLEDO EXPRESS LGT RAIN  54  51  90 E10       29.85R
TOLEDO EXEC    LGT RAIN  54  52  93 N8        29.87F FOG
LIMA           CLOUDY    55  54  96 E9        29.83R
$$

OHZ009>014-019>023-028>033-038-089-281500-
   NORTHEAST OHIO

CITY           SKY/WX    TMP DP  RH WIND       PRES   REMARKS
CLE-HOPKINS    CLOUDY    60  47  61 SW6       29.93R
CLE-LAKEFRONT  PTSUNNY   63  45  51 S13       29.90R
CUY CO. ARPT   CLOUDY    61  48  63 S12       29.91R
LORAIN-ELYRIA  LGT RAIN  54  49  83 CALM      29.92R
ASHTABULA      CLOUDY    58  49  72 SE7       29.96R
AKRON-CANTON   CLOUDY    58  43  57 SE9       29.93R
WOOSTER        CLOUDY    59  47  64 SE6       29.92R
MANSFIELD      LGT RAIN  53  50  89 SW5       29.93R FOG
YOUNGSTOWN     CLOUDY    56  46  69 SE10      29.95R
$$

OHZ042-051>053-060>062-070>072-077>081-281500-
  SOUTHWEST OHIO

CITY           SKY/WX    TMP DP  RH WIND       PRES   REMARKS
CINC-COVINGTON NOT AVBL
CINC-LUNKEN    TSTM      56  54  93 NE3       29.86R
HAMILTON       TSTM      57  54  89 E10       29.84F
DAYTON         RAIN      54  54 100 SE8       29.86R FOG
WRIGHT-PAT AFB LGT RAIN  55  55 100 S6        29.88R FOG
DAYTON GENERAL RAIN      54  51  90 E8        29.85R FOG
WILMINGTON     CLOUDY    59  49  69 N7        29.88R
$$

OHZ036-037-039>041-045>050-054>059-063>069-073>076-082>088-281500-
  CENTRAL AND SOUTHEAST OHIO

CITY           SKY/WX    TMP DP  RH WIND       PRES   REMARKS
COLUMBUS       CLOUDY    60  50  69 NE6       29.88F
OSU AIRPORT    LGT RAIN  54  53  97 CALM      29.90R FOG
BOLTON FIELD   CLOUDY    55  52  88 NE5       29.88S
RICKENBACK AFB LGT RAIN  58  47  67 N3        29.87F
NEWARK         PTSUNNY   59  47  64 NW3       29.89R
MARION         LGT RAIN  54  52  93 E3        29.91S FOG
LANCASTER      CLOUDY    61  47  59 CALM      29.89R
ZANESVILLE     MOSUNNY   62  45  53 S8        29.92R
NEW PHILLY     CLOUDY    57  46  66 SE5       29.94R
$$




USA.gov is the U.S. government's official web portal to all federal, state and local government web resources and services.